Regional Weather Roundup
Issued by NWS

Home | Current Version | Previous Version | Graphics & Text | Print | Product List | Glossary On
Versions: 1 2 3 4 5 6 7 8 9 10 11 12 13 14 15 16 17 18 19 20 21 22 23 24 25 26 27 28 29 30 31 32 33 34 35 36 37 38 39 40 41 42 43 44 45 46 47 48 49 50
000
ASUS45 KCYS 122010
RWRWY

WYOMING REGIONAL WEATHER ROUNDUP
NATIONAL WEATHER SERVICE CHEYENNE WY
100 PM MST TUE DEC 12 2017

NOTE:  "FAIR" INDICATES FEW OR NO CLOUDS BELOW 12,000 FEET
WITH NO SIGNIFICANT WEATHER AND/OR OBSTRUCTIONS TO VISIBILITY.

WYZ001-122100-
YELLOWSTONE NATIONAL PARK

CITY           SKY/WX    TMP DP  RH WIND       PRES   REMARKS
LK YELLOWSTONE   N/A     28  17  63 SE3       30.47F
W YELLOWSTONE  NOT AVBL

$$
WYZ002>013-054>058-071-098>099-122100-
NORTHERN WYOMING

CITY           SKY/WX    TMP DP  RH WIND       PRES   REMARKS
JACKSON        FAIR      31  17  56 CALM      30.48F
CODY           FAIR      59   7  12 W18G31    30.20F
GREYBULL       FAIR      40  18  41 CALM      30.22F
WORLAND        FAIR      46  24  42 CALM      30.23F
SHERIDAN       FAIR      65  24  21 E3        30.08F
BUFFALO        FAIR      67  11  11 SE6       30.13F
GILLETTE       FAIR      61  19  19 W9        30.10F
HULETT         FAIR      50  21  32 SW12      30.09F
NEWCASTLE      FAIR      52  16  24 CALM      30.13F

$$
WYZ014>020-022>026-101>103-122100-
CENTRAL WYOMING

CITY           SKY/WX    TMP DP  RH WIND       PRES   REMARKS
BIG PINEY      FAIR      48   8  19 S5        30.41F
PINEDALE       FAIR      54   1  12 NW15      30.41F
DUBOIS         FAIR      54   0  11 NW21      30.34F
LANDER         FAIR      38  23  55 S3        30.28F
RIVERTON       FAIR      36  21  54 CALM      30.29F
CASPER         FAIR      46  18  32 SW28G38   30.24F
DOUGLAS        FAIR      57  24  28 NW17      30.18F

$$
WYZ021-027>030-104>119-122100-
SOUTHERN WYOMING

CITY           SKY/WX    TMP DP  RH WIND       PRES   REMARKS
EVANSTON         N/A    N/A N/A N/A MISG      30.46F
FORT BRIDGER   FAIR      57  -1   9 W13       30.47F
ROCK SPRINGS   FAIR      47   1  15 W15       30.41F
DIXON          FAIR      40  15  36 CALM      30.46F
RAWLINS        FAIR      45  13  27 SW21G26   30.39F
SARATOGA       FAIR      43  23  45 SE8       30.40F
LARAMIE        FAIR      54  17  23 N6        30.31F
CHEYENNE       FAIR      60  14  16 W18G28    30.24F
TORRINGTON     FAIR      64  17  16 W12       30.14F
PINE BLUFFS    FAIR      64  14  14 NW24G31   30.19F

$$



USA.gov is the U.S. government's official web portal to all federal, state and local government web resources and services.